Regional Weather Roundup
Issued by NWS Wakefield, VA

Home | Current Version | Previous Version | Text Only | Print | Product List | Glossary Off
Versions: 1 2 3 4 5 6 7 8 9 10 11 12 13 14 15 16 17 18 19 20 21 22 23 24 25 26 27 28 29 30 31 32 33 34 35 36 37 38 39 40 41 42 43 44 45 46 47 48 49 50

000
ASUS41 KAKQ 300310
RWRAKQ

REGIONAL WEATHER ROUNDUP
NATIONAL WEATHER SERVICE WAKEFIELD VA
1000 PM EST THU JAN 29 2015

Note: "fair" indicates few or no clouds below 12,000 feet with no
significant weather and/or obstructions to visibility. * = Denotes
station may not report precipitation (e.g., rain,snow,etc.),
thunder or fog.

VAZ042-051-052>054-056-300400-
NORTHERN VIRGINIA

CITY           SKY/WX    TMP DP  RH WIND       PRES   REMARKS
WASH NATIONAL  CLOUDY    39  22  50 S13       29.97F
DULLES         CLOUDY    36  21  54 S8        29.94F
FORT BELVOIR   CLOUDY    37  21  53 VRB5      29.98F
QUANTICO       CLOUDY    37  27  67 SW10      29.99F
FREDERICKSBRG* CLOUDY    42  20  42 S12       29.98F
STAFFORD*      CLOUDY    39  17  41 CALM      30.01F
WARRENTON      CLOUDY    40  28  64 S5        29.95F
CULPEPER*      CLOUDY    41  23  48 S7        29.96F
MANASSAS*      NOT AVBL
LEESBURG*      CLOUDY    34  30  86 S5        29.95F
WINCHESTER     CLOUDY    36  25  64 S3        29.89F
FRONT ROYAL*   CLOUDY    36  28  75 S3        29.89F
LURAY*         CLOUDY    41  30  65 SW10      29.90F
$$

VAZ048-049-060>072-079>083-300400-
CENTRAL AND SOUTH CENTRAL VIRGINIA

CITY           SKY/WX    TMP DP  RH WIND       PRES   REMARKS
RICHMOND       CLOUDY    38  20  48 S9        30.02F
CHESTERFIELD*  FAIR      36  12  38 S9        30.03F
PETERSBURG*    MOCLDY    36  19  51 S5        30.05F
HANOVER        MOCLDY    40  19  43 S14       30.03F
TAPPAHANNOCK*  CLOUDY    40  13  32 S7        30.03F
QUINTON*       MOCLDY    38  18  43 S6        30.04F
CHARLOTTSVILLE CLOUDY    39  23  52 S15G22    29.95F
GORDONSVILLE*  CLOUDY    38  23  53 SW6       29.96F
ORANGE*        CLOUDY    41  23  48 S9        29.98F
LOUISA*        CLOUDY    41  21  45 S8        29.96F
BUMPASS*       CLOUDY    40  20  44 S10G16    29.98F
FARMVILLE*     CLOUDY    42  24  48 SW10      29.98F
CREWE*         CLOUDY    37  21  51 S7        30.00F
FORT PICKETT*  CLOUDY    36  22  56 S8        30.02F
CHASE CITY*    CLOUDY    39  26  59 S6        30.01F
CLARKSVILLE*   MOCLDY    36  27  69 S6        30.04F
SOUTH HILL*    PTCLDY    33  22  64 S6        30.11F
LAWRENCEVILLE* FAIR      32  24  72 S3        30.06F
EMPORIA*       PTCLDY    32  21  64 SE3       30.10S
$$

VAZ088>098-300400-
SOUTHEAST VIRGINIA

CITY           SKY/WX    TMP DP  RH WIND       PRES   REMARKS
NORFOLK        CLOUDY    39  22  50 S10       30.08F
VIRGINIA BEACH CLOUDY    41  24  51 S7        30.09F
NORFOLK NAVAL  MOCLDY    43  22  43 S9        30.10F
WEST POINT*    CLOUDY    42  17  35 S7        30.07F
SALUDA*        CLOUDY    39  20  47 S7        30.06F
NEWPORT NEWS   CLOUDY    42  22  44 S8        30.08F
LANGLEY AFB    CLOUDY    40  22  49 S8        30.08F
FORT EUSTIS    CLOUDY    40  26  58 S6        30.06F
WILLIAMSBURG*    N/A     43  25  49 S6        30.08F
HR EXEC AP*    CLOUDY    39  21  48 S7        30.12S
FRANKLIN*      CLOUDY    36  23  58 S5        30.09F
WAKEFIELD      CLOUDY    39  19  44 S3        30.08F
$$

VAZ020-022-025-037-045-300400-
WEST CENTRAL AND SOUTHWEST VIRGINIA

CITY           SKY/WX    TMP DP  RH WIND       PRES   REMARKS
STAUNTON*      CLOUDY    39  26  58 S7        29.93F
WAYNESBORO*    CLOUDY    38  26  61 S3        29.91F
HOT SPRINGS VA CLOUDY    35  29  78 W18G26    29.83F WCI  25
LYNCHBURG      CLOUDY    39  25  57 SW7       29.98F
DANVILLE       CLOUDY    41  25  53 SW6       30.03F
SOUTH BOSTON*  CLOUDY    40  23  50 SW12      30.02F
MARTINSVILLE   CLOUDY    43  25  49 SW3       30.03F
ROANOKE        CLOUDY    43  26  51 SE3       29.98F
BLACKSBURG     CLOUDY    36  27  70 CALM      29.98F
DUBLIN*        CLOUDY    39  31  73 CALM      29.97F
MARION*        CLOUDY    44  32  63 W15       29.98S
HILLSVILLE*    CLOUDY    38  26  61 S6        29.96F
RICHLANDS*     CLOUDY    43  32  64 NW13      29.98S
WISE*          RAIN      37  37 100 W13       30.05R
ABINGDON*      CLOUDY    47  34  60 W7        29.99F
$$

MDZ021>025-VAZ099-100-300400-
SOUTHERN MARYLAND AND THE DELMARVA PENINSULA

CITY           SKY/WX    TMP DP  RH WIND       PRES   REMARKS
PATUXENT RIVER CLOUDY    38  23  55 S10G18    30.01F
BAY BRIDGE APT   N/A     34  27  75 S10       29.99F
LEONARDTOWN    CLOUDY    36  23  60 S8        30.02F
DOVER          NOT AVBL
GEORGETOWN     CLOUDY    35  25  66 S10       30.04F
EASTON         CLOUDY    37  26  67 S9        30.04F
CAMBRIDGE      CLOUDY    37  27  65 S13G18    30.01F
SALISBURY      CLOUDY    37  25  61 S9        30.04F
OCEAN CITY     CLOUDY    37  29  72 SW9       30.06F
WALLOPS ISLAND CLOUDY    37  30  75 SW12      30.08F
ACCOMACK*      CLOUDY    37  23  56 S7        30.07F
$$

NCZ012>017-030>032-300400-
NORTH CENTRAL AND EASTERN NORTH CAROLINA

CITY           SKY/WX    TMP DP  RH WIND       PRES   REMARKS
ROANOKE RAPIDS FAIR      32  25  74 S3        30.08F
RALEIGH        PTCLDY    38  24  57 S5        30.09S
ELIZABETH CITY CLOUDY    40  26  57 S7        30.11F
AHOSKIE*       CLEAR     32  22  66 CALM      30.10S
EDENTON*       CLOUDY    41  30  64 S8        30.11S
CURRITUCK*     CLOUDY    40  23  50 S5        30.11S
KILL DEVIL HLS CLOUDY    41  29  61 S7        30.10F
MANTEO         CLOUDY    41  30  65 S12       30.12F
CAPE HATTERAS  CLOUDY    48  38  68 SW10      30.14F
TARBORO*       FAIR      42  24  48 S5        30.11S
GOLDSBORO      MOCLDY    44  36  72 SW2       30.09S
WASHINGTON     CLOUDY    43  27  53 SW5       30.11F
GREENVILLE     PTCLDY    43  28  56 SW3       30.12F
NEW BERN       CLOUDY    47  34  60 S8        30.11F
WILMINGTON     MOCLDY    48  38  68 S7        30.13F
$$

VAZ048-300400-
ELSEWHERE

CITY           SKY/WX    TMP DP  RH WIND       PRES   REMARKS
HARRISBURG PA  CLOUDY    28  25  88 E8        29.95F
BALTIMORE      CLOUDY    34  25  69 S3        29.97F
ANNAPOLIS      CLOUDY    36  29  75 S10       29.99F
ANDREWS AFB    CLOUDY    36  22  58 S10       29.96F
PHILADELPHIA   FLURRIES  33  23  66 SE6       30.02F
HENDERSON NC   PTCLDY    36  23  59 S9        30.06F
GREENSBORO     CLOUDY    39  26  59 S12       30.02F
ROCKY MOUNT    PTCLDY    35  24  64 CALM      30.10F
$$

VAZ100-300400-
MARINE

STATION/POSITION TIME  TEMP    WIND        PRES    WAVE   SWELL
                       AIR SEA DIR/SP/G            HT/PER HT/PER
                 (UTC) (F)     (DEG/KT/KT) (MB)    (FT/S) (FT/S)
BRANDYWINE LGT   0300          200/ 18/ 20   N/A
CAPE MAY NJ      0300   35 37              1017.0F
LEWES DE         0300   35 36  190/  7/ 11 1017.4F
15NM E FENWICK I 0300   39 40              1017.6F   4/ 4
OCEAN-CITY-INLET 0300   37 36  220/ 12/ 14 1017.8S
WACHAPREAGUE VA  0300   38 36  200/  7/  8 1018.6F
THOMAS POINT MD  0300   36 35  180/ 20/ 22 1016.3F
GOOSES REEF MD   0300   36     VRB 17/ 21  1014.7F
COVE POINT MD    0300   36     190/ 17/ 19 1016.3F
SOLOMONS ISLAND  0300      37                N/A
BISHOPS HEAD MD  0300   36 34  170/ 15/ 17 1016.6F
PINEY POINT MD   0300          170/  8/  9   N/A
POTOMAC MD       0300   38     190/ 12/ 14 1016.3F
CAMBRIDGE MD     0300   36 35  180/  8/ 13 1016.4R
LEWISETTA VA     0300   38 36  200/ 10/ 11 1016.6F
RAPPAHANNOCK LGT 0300          180/ 15/ 16 1018.4F
STINGRAY PT      0300   39     190/  8/ 10 1018.6F
YORK RVR RNG VA  0300   40     200/  8/  8 1017.9F
YORKTOWN VA      0300   40 40  200/  4/  5 1018.3S
JAMESTOWN VA     0300   38     190/  6/  8   N/A
DOMINION TERM VA 0300   40     200/  6/  8 1018.9F
KIPTOPEKE VA     0300      44  200/  8/ 11   N/A
CHES BAY BRIDGE  0300   40 40  180/  9/ 12 1018.6S
CAPE HENRY VA    0300   39     190/  6/ 10 1017.7R
CHESAPEAKE LGHT  0200   41     190/ 18/ 20 1019.3F
WILLOUBY STN VA  0300   40     200/ 10/ 12 1019.2F
S CRANEY ISL VA  0300          190/  7/ 10 1018.8F
CAPE HENRY BUOY  0300      42                N/A     3/ 4   2/11
1ST LANDING BUOY 0300   40     200/ 10/ 12 1018.7F
CAPE CHARLES BUO 0300      41                N/A     3/ 4   2/11
OFFSHORE WE BUOY 0300      43                N/A     4/11   3/11
64NM E OF VA BCH 0300   45 49  210/ 14/ 17 1019.0F   3/11   2/11
DUCK PIER NC     0300   40 43  190/ 12/ 16 1018.7F
44100 DUCK FRF   0300      44                N/A     3/11   2/11
44056 DUCK FRF   0300      42                N/A     3/11   2/11
OREGON INLET NC  0300   41 41  180/ 10/ 12 1020.3S
HATTERAS NC      0300   49 44  230/  9/ 12 1021.0S



USA.gov is the U.S. government's official web portal to all federal, state and local government web resources and services.